• In Latvia
  • List of Countries
  • For 7 days
  • Water Temperature
  • Satellite Maps
  • Weather Map
  • Weather Widgets
  • user-avatar
    Login

    Hourly Weather Shkoder

    Today, 24 February, Friday

    Time Temperature Precipitation Wind Pressure Humidity
    00:00 +7°C° 0 mm 2 mps 740 mmHg 93%
    01:00 +7°C° 0 mm 2 mps 740 mmHg 93%
    02:00 +7°C° 0 mm 2 mps 740 mmHg 93%
    03:00 +7°C° 0 mm 2 mps 740 mmHg 93%
    04:00 +7°C° 0 mm 2 mps 739 mmHg 93%
    05:00 +7°C° 0.1 mm 2 mps 739 mmHg 93%
    06:00 +7°C° 0.1 mm 2 mps 739 mmHg 93%
    07:00 +8°C° 0.1 mm 3 mps 739 mmHg 93%
    08:00 +9°C° 0.1 mm 3 mps 739 mmHg 90%
    09:00 +10°C° 0.1 mm 3 mps 739 mmHg 87%
    10:00 +11°C° 0.1 mm 3 mps 739 mmHg 84%
    11:00 +11°C° 0 mm 3 mps 738 mmHg 82%
    12:00 +12°C° 0 mm 3 mps 738 mmHg 81%
    13:00 +13°C° 0 mm 3 mps 738 mmHg 80%
    14:00 +12°C° 0.1 mm 3 mps 737 mmHg 82%
    15:00 +12°C° 0.1 mm 3 mps 737 mmHg 84%
    16:00 +12°C° 0.1 mm 3 mps 737 mmHg 87%
    17:00 +11°C° 0.2 mm 3 mps 737 mmHg 90%
    18:00 +11°C° 0.2 mm 3 mps 736 mmHg 93%
    19:00 +10°C° 0.2 mm 4 mps 736 mmHg 96%
    20:00 +10°C° 0.6 mm 4 mps 736 mmHg 96%
    21:00 +10°C° 0.6 mm 4 mps 736 mmHg 96%
    22:00 +10°C° 0.6 mm 4 mps 736 mmHg 96%
    23:00 +10°C° 1.3 mm 4 mps 736 mmHg 95%

    Tomorrow, 25 February, Saturday

    Time Temperature Precipitation Wind Pressure Humidity
    00:00 +10°C° 1.3 mm 4 mps 736 mmHg 95%
    01:00 +10°C° 1.3 mm 4 mps 736 mmHg 94%
    02:00 +10°C° 3.7 mm 4 mps 736 mmHg 95%
    03:00 +10°C° 3.7 mm 4 mps 736 mmHg 95%
    04:00 +10°C° 3.7 mm 4 mps 735 mmHg 96%
    05:00 +10°C° 1.7 mm 4 mps 736 mmHg 95%
    06:00 +10°C° 1.7 mm 4 mps 736 mmHg 95%
    07:00 +9°C° 1.7 mm 3 mps 737 mmHg 94%
    08:00 +9°C° 3.7 mm 3 mps 737 mmHg 94%
    09:00 +7°C° 3.7 mm 4 mps 738 mmHg 94%
    10:00 +7°C° 3.7 mm 4 mps 738 mmHg 94%
    11:00 +6°C° 4.1 mm 4 mps 738 mmHg 94%
    12:00 +6°C° 4.1 mm 4 mps 738 mmHg 93%
    13:00 +5°C° 4.1 mm 5 mps 738 mmHg 93%
    14:00 +5°C° 2 mm 5 mps 739 mmHg 92%
    15:00 +5°C° 2 mm 5 mps 739 mmHg 92%
    16:00 +5°C° 2 mm 5 mps 739 mmHg 92%
    17:00 +3°C° 2.7 mm 5 mps 739 mmHg 93%
    18:00 +3°C° 2.7 mm 5 mps 740 mmHg 93%
    19:00 +3°C° 2.7 mm 5 mps 741 mmHg 93%
    20:00 +3°C° 2.8 mm 5 mps 741 mmHg 93%
    21:00 +3°C° 2.8 mm 5 mps 742 mmHg 93%
    22:00 +2°C° 2.8 mm 5 mps 742 mmHg 93%
    23:00 +3°C° 1.5 mm 4 mps 742 mmHg 93%

    Day after tomorrow, 26 February, Sunday

    Time Temperature Precipitation Wind Pressure Humidity
    00:00 +3°C° 1.5 mm 4 mps 743 mmHg 93%
    01:00 +3°C° 1.5 mm 4 mps 743 mmHg 93%
    02:00 +3°C° 0.4 mm 4 mps 743 mmHg 93%
    03:00 +3°C° 0.4 mm 4 mps 742 mmHg 92%
    04:00 +3°C° 0.4 mm 3 mps 742 mmHg 92%
    05:00 +3°C° 0.1 mm 3 mps 743 mmHg 92%
    06:00 +4°C° 0.1 mm 3 mps 743 mmHg 91%
    07:00 +4°C° 0.1 mm 3 mps 743 mmHg 91%
    08:00 +5°C° 0 mm 3 mps 743 mmHg 91%
    09:00 +7°C° 0 mm 2 mps 743 mmHg 90%
    10:00 +8°C° 0 mm 2 mps 743 mmHg 89%
    11:00 +9°C° 0 mm 2 mps 742 mmHg 88%
    12:00 +9°C° 0 mm 2 mps 742 mmHg 87%
    13:00 +11°C° 0 mm 1 mps 741 mmHg 86%
    14:00 +11°C° 0 mm 1 mps 741 mmHg 87%
    15:00 +11°C° 0 mm 1 mps 741 mmHg 89%
    16:00 +11°C° 0 mm 1 mps 740 mmHg 90%
    17:00 +10°C° 0 mm 1 mps 741 mmHg 91%
    18:00 +9°C° 0 mm 1 mps 741 mmHg 93%
    19:00 +8°C° 0 mm 1 mps 741 mmHg 94%
    20:00 +8°C° 0 mm 1 mps 741 mmHg 94%
    21:00 +7°C° 0 mm 1 mps 741 mmHg 93%
    22:00 +7°C° 0 mm 1 mps 741 mmHg 92%
    23:00 +7°C° 0 mm 1 mps 741 mmHg 93%

    27 February, Monday

    Time Temperature Precipitation Wind Pressure Humidity
    00:00 +7°C° 0 mm 1 mps 741 mmHg 93%
    01:00 +7°C° 0 mm 1 mps 741 mmHg 93%
    02:00 +7°C° 0 mm 1 mps 740 mmHg 93%
    03:00 +7°C° 0 mm 1 mps 740 mmHg 93%
    04:00 +6°C° 0 mm 1 mps 740 mmHg 93%
    05:00 +7°C° 0 mm 1 mps 740 mmHg 93%
    06:00 +7°C° 0 mm 1 mps 740 mmHg 93%
    07:00 +7°C° 0 mm 1 mps 740 mmHg 93%
    08:00 +9°C° 0 mm 1 mps 740 mmHg 90%
    09:00 +11°C° 0 mm 1 mps 740 mmHg 87%
    10:00 +13°C° 0 mm 1 mps 740 mmHg 85%
    11:00 +13°C° 0 mm 1 mps 740 mmHg 84%
    12:00 +13°C° 0 mm 1 mps 739 mmHg 83%
    13:00 +14°C° 0 mm 1 mps 739 mmHg 83%
    14:00 +14°C° 0 mm 1 mps 739 mmHg 84%
    15:00 +13°C° 0 mm 1 mps 739 mmHg 86%
    16:00 +13°C° 0 mm 1 mps 739 mmHg 87%
    17:00 +12°C° 0 mm 1 mps 739 mmHg 90%
    18:00 +10°C° 0 mm 1 mps 739 mmHg 92%
    19:00 +9°C° 0 mm 1 mps 739 mmHg 94%
    20:00 +9°C° 0 mm 1 mps 739 mmHg 95%
    21:00 +9°C° 0 mm 1 mps 739 mmHg 95%
    22:00 +8°C° 0 mm 1 mps 739 mmHg 96%
    23:00 +8°C° 0 mm 1 mps 739 mmHg 96%

    28 February, Tuesday

    Time Temperature Precipitation Wind Pressure Humidity
    00:00 +8°C° 0 mm 1 mps 739 mmHg 96%
    01:00 +8°C° 0 mm 2 mps 739 mmHg 96%
    02:00 +8°C° 0 mm 2 mps 739 mmHg 96%
    03:00 +8°C° 0 mm 2 mps 739 mmHg 96%
    04:00 +8°C° 0 mm 2 mps 739 mmHg 96%
    05:00 +8°C° 0 mm 2 mps 739 mmHg 96%
    06:00 +8°C° 0 mm 2 mps 739 mmHg 95%
    07:00 +8°C° 0 mm 2 mps 739 mmHg 94%
    08:00 +9°C° 0 mm 2 mps 739 mmHg 92%
    09:00 +10°C° 0 mm 2 mps 739 mmHg 90%
    10:00 +12°C° 0 mm 2 mps 739 mmHg 88%
    11:00 +12°C° 0.1 mm 2 mps 739 mmHg 87%
    12:00 +12°C° 0.1 mm 3 mps 739 mmHg 87%
    13:00 +12°C° 0.1 mm 3 mps 738 mmHg 86%
    14:00 +12°C° 0.1 mm 3 mps 738 mmHg 87%
    15:00 +12°C° 0.1 mm 3 mps 738 mmHg 88%
    16:00 +12°C° 0.1 mm 3 mps 738 mmHg 90%
    17:00 +11°C° 0.1 mm 3 mps 738 mmHg 92%
    18:00 +10°C° 0.1 mm 3 mps 738 mmHg 95%
    19:00 +9°C° 0.1 mm 3 mps 739 mmHg 97%
    20:00 +9°C° 0.2 mm 3 mps 739 mmHg 97%
    21:00 +9°C° 0.2 mm 3 mps 739 mmHg 97%
    22:00 +10°C° 0.2 mm 3 mps 739 mmHg 97%
    23:00 +10°C° 0.3 mm 3 mps 739 mmHg 97%

    1 March, Wednesday

    Time Temperature Precipitation Wind Pressure Humidity
    00:00 +10°C° 0.3 mm 3 mps 739 mmHg 97%
    01:00 +10°C° 0.3 mm 3 mps 739 mmHg 97%
    02:00 +10°C° 0.4 mm 3 mps 739 mmHg 97%
    03:00 +10°C° 0.4 mm 4 mps 738 mmHg 96%
    04:00 +10°C° 0.4 mm 4 mps 738 mmHg 96%
    05:00 +10°C° 0.5 mm 4 mps 738 mmHg 96%
    06:00 +10°C° 0.5 mm 4 mps 738 mmHg 96%
    07:00 +10°C° 0.5 mm 4 mps 739 mmHg 95%
    08:00 +10°C° 0.4 mm 4 mps 739 mmHg 94%
    09:00 +11°C° 0.4 mm 4 mps 739 mmHg 93%
    10:00 +11°C° 0.4 mm 4 mps 739 mmHg 92%
    11:00 +11°C° 0.3 mm 4 mps 739 mmHg 91%
    12:00 +12°C° 0.3 mm 3 mps 739 mmHg 90%
    13:00 +12°C° 0.3 mm 3 mps 739 mmHg 89%
    14:00 +12°C° 0.1 mm 3 mps 739 mmHg 90%
    15:00 +13°C° 0.1 mm 2 mps 739 mmHg 90%
    16:00 +13°C° 0.1 mm 2 mps 740 mmHg 90%
    17:00 +12°C° 0 mm 2 mps 740 mmHg 92%
    18:00 +10°C° 0 mm 2 mps 741 mmHg 94%
    19:00 +10°C° 0 mm 1 mps 741 mmHg 96%
    20:00 +10°C° 0 mm 1 mps 742 mmHg 95%
    21:00 +9°C° 0 mm 1 mps 742 mmHg 94%
    22:00 +9°C° 0 mm 1 mps 742 mmHg 94%
    23:00 +8°C° 0 mm 1 mps 742 mmHg 93%
    Show more